Back to catalog

SKYNET 4C

AliveMilitaryGEO
NORAD 20776·PAYLOAD·🇬🇧 United Kingdom

Launched Aug 30, 1990 from Guiana Space Centre

Loading…

TLE

FreshSource: Space-Track

Epoch: Sep 14, 2026, 12:59 UTC

1 20776U 90079A   26257.54099081 -.00000217  00000-0  00000-0 0  9996
2 20776  13.3100 349.2466 0002688 164.4003 211.4187  0.98580356   927

Track SKYNET 4C in real time with AllMySat

Download on the App Store